Regional Weather Roundup
Issued by NWS

Home | Current Version | Previous Version | Graphics & Text | Print | Product List | Glossary On
Versions: 1 2 3 4 5 6 7 8 9 10 11 12 13 14 15 16 17 18 19 20 21 22 23 24 25 26 27 28 29 30 31 32 33 34 35 36 37 38 39 40 41 42 43 44 45 46 47 48 49 50
000
ASUS43 KMKX 061411
RWRWI

WISCONSIN REGIONAL WEATHER ROUNDUP
NATIONAL WEATHER SERVICE MILWAUKEE/SULLIVAN WI
800 AM CST TUE DEC 06 2016

NOTE: "FAIR" INDICATES FEW OR NO CLOUDS BELOW 12,000 FEET WITH NO
SIGNIFICANT WEATHER AND/OR OBSTRUCTIONS TO VISIBILITY.

WIZ001-002-006>008-014>016-023>028-061500-
NORTHWEST WISCONSIN

CITY           SKY/WX    TMP DP  RH WIND       PRES   REMARKS
SUPERIOR ARPT  CLOUDY    31  25  77 SW14G21   29.58F WCI  21
ASHLAND        LGT SNOW  34  31  88 MISG      29.59F FOG
HAYWARD        LGT SNOW  30  27  88 SW21G31   29.61F VSB 3/4 WCI  17
SIREN          CLOUDY    28  20  74 SW18G28   29.64S WCI  15
CUMBERLAND     CLOUDY    28  25  86 SW13G20   29.64F WCI  18
RICE LAKE      LGT SNOW  29  27  92 SW9       29.67F WCI  20
CHETEK         LGT SNOW  29  28  95 SW8       29.67S WCI  21
LADYSMITH      LGT SNOW  32  32  99 S8        29.66S WCI  25
EAU CLAIRE     LGT SNOW  31  29  92 SW14      29.69F FOG     WCI  21
MENOMONIE      LGT SNOW  30  28  93 SW14      29.70S WCI  20
NEW RICHMOND   CLOUDY    26  19  74 SW22      29.69S WCI  11
OSCEOLA        CLOUDY    25  18  73 W17G23    29.73S WCI  12
$$

WIZ003>005-009-010-017-018-061500-
NORTH CENTRAL WISCONSIN

CITY           SKY/WX    TMP DP  RH WIND       PRES   REMARKS
MANITOWISH WTR LGT SNOW  30  30 100 S13G20    29.63F WCI  20
ARBOR VITAE    CLOUDY    32  30  92 S9G17     29.64F FOG     WCI  24
WOODRUFF       CLOUDY    32  30  92 S9G17     29.64F FOG     WCI  24
RHINELANDER    CLOUDY    31  29  92 SE9       29.68F FOG     WCI  23
EAGLE RIVER    CLOUDY    30  27  88 S9G16     29.67F FOG     WCI  22
LAND O LAKES   CLOUDY    31  28  90 S10       29.68S FOG     WCI  22
PHILLIPS       LGT SNOW  31  30  97 S10       29.63F WCI  22
TOMAHAWK       CLOUDY    30  28  92 SE5       29.68F FOG     WCI  25
MEDFORD        MIX PCPN  29  28  96 S13       29.67F WCI  19
MERRILL        CLOUDY    30  29  96 S7        29.71F FOG     WCI  23
$$

WIZ029-030-035-036-043>047-061500-
CENTRAL WISCONSIN

CITY           SKY/WX    TMP DP  RH WIND       PRES   REMARKS
WAUSAU         CLOUDY    30  28  92 SE8       29.70F FOG     WCI  22
MOSINEE        CLOUDY    30  30 100 S9        29.73F FOG     WCI  22
MARSHFIELD     CLOUDY    30  28  92 S12       29.70F FOG     WCI  20
STEVENS POINT  CLOUDY    29  29 100 S8        29.74F FOG     WCI  21
WAUPACA        CLOUDY    33  30  88 S6        29.78F FOG     WCI  28
WAUTOMA        CLOUDY    31  30  96 S5        29.78F FOG     WCI  26
WISC RAPIDS    CLOUDY    31  30  96 S8        29.75F WCI  23
CAMP DOUGLAS   CLOUDY    32  30  93 S9        29.73F FOG     WCI  24
$$

WIZ011>013-019>022-031-037>040-048>050-061500-
NORTHEAST WISCONSIN

CITY           SKY/WX    TMP DP  RH WIND       PRES   REMARKS
ANTIGO         CLOUDY    29  28  98 S13G18    29.73F FOG     WCI  19
SHAWANO        CLOUDY    35  32  88 SW7       29.79S FOG     WCI  29
OCONTO         CLOUDY    38  34  83 S5        29.78S WCI  35
STURGEON BAY   CLOUDY    37  33  85 SE13G18   29.79F WCI  29
GREEN BAY      CLOUDY    37  35  92 SW6       29.78F WCI  32
MANITOWOC      CLOUDY    39  34  82 MISG      29.80S
APPLETON       CLOUDY    34  32  93 SW9       29.77F FOG     WCI  26
CLINTONVILLE   CLOUDY    32  30  93 S15G21    29.79S FOG     WCI  22
OSHKOSH        CLOUDY    33  31  92 SW6       29.77F FOG     WCI  28
$$

WIZ032>034-041-042-053>061-061500-
SOUTHWEST WISCONSIN

CITY           SKY/WX    TMP DP  RH WIND       PRES   REMARKS
LA CROSSE      LGT SNOW  34  32  92 S10       29.75S FOG     WCI  26
SPARTA         LGT SNOW  32  31  96 S3        29.74F
VIROQUA        CLOUDY    31  31 100 S6        29.72F VSB 1/2 WCI  25
BOSCOBEL       CLOUDY    34  32  92 CALM      29.77F FOG
PRAIRIE DU CHI LGT SNOW  33  32  95 CALM      29.78S
PLATTEVILLE    CLOUDY    32  32 100 S5        29.77F VSB 1/4 WCI  27
$$

WIZ056-057-062-063-064-067-068-061500-
SOUTH CENTRAL WISCONSIN

CITY           SKY/WX    TMP DP  RH WIND       PRES   REMARKS
REEDSBURG      CLOUDY    31  31 100 CALM      29.76F FOG
BARABOO/DELLS  CLOUDY    31  30  96 S6        29.76F FOG     WCI  25
LONE ROCK      CLOUDY    32  31  96 E5        29.78F FOG     WCI  27
MINERAL POINT  FOG       32  32 100 SE6       29.76F VSB<1/4 WCI  26
MADISON        CLOUDY    32  30  92 SW6       29.79F FOG     WCI  26
MIDDLETON      NOT AVBL
WATERTOWN      CLOUDY    32  32 100 SW3       29.79F FOG
MONROE         FOG       32  32 100 CALM      29.77F VSB 1/2
JANESVILLE     FOG       34  34 100 CALM      29.79F VSB 1/2
$$

WIZ051-052-058>065-066-070>072-061500-
SOUTHEAST WISCONSIN

CITY           SKY/WX    TMP DP  RH WIND       PRES   REMARKS
MILWAUKEE      MOCLDY    37  33  85 SE7       29.79F WCI  32
WAUKESHA       CLOUDY    30  30 100 SE7       29.80S FOG     WCI  23
MILWAUKEE/TIMM CLEAR     36  32  87 CALM      29.80F FOG
RACINE         MOCLDY    39  34  82 SE7       29.81F WCI  34
BURLINGTON     CLOUDY    32  32  99 CALM      29.79F FOG
KENOSHA        CLOUDY    33  31  92 CALM      29.79F FOG
FOND DU LAC    CLOUDY    34  30  85 SW7       29.79F FOG     WCI  28
SHEBOYGAN      CLOUDY    37  33  85 S5        29.80S WCI  33
WEST BEND      CLOUDY    32  32 100 W3        29.79F FOG
JUNEAU         FOG       31  31 100 SW6       29.80F VSB 1/4 WCI  25
$$

LSZ147-162-061500-
LAKE SUPERIOR

STATION/POSITION TIME  TEMP    WIND        PRES    WAVE
                       AIR SEA DIR/SP/G            HT/PER
                 (UTC) (F)     (DEG/KT/KT) (MB)    (FT/S)
DEVILS ISLAND    1400   35     190/ 13/ 17 1002.4F
PORT WING        1340   33     190/ 10/ 16 1002.4F
SAXON HARBOR     1330   36     180/  6/ 16 1002.7F
$$

LMZ867-665-643>646-061500-
LAKE MICHIGAN

STATION/POSITION TIME  TEMP    WIND        PRES    WAVE
                       AIR SEA DIR/SP/G            HT/PER
                 (UTC) (F)     (DEG/KT/KT) (MB)    (FT/S)
CHAMBERS ISLAND  1330   38     140/ 10/ 16 1008.5F
NORTHPORT PIER   1400   39     150/ 11/ 23 1009.1
SISTER BAY       1353   39     160/ 14/ 19   N/A
ALGOMA LAKESHORE 1321          180/ 19/ 25   N/A
KEWAUNEE LAKESHO 1348   38     170/ 17/ 20 1008.9F
SHEBOYGAN LAKESH 1400   39     150/ 17/ 18 1009.3F
PORT WASHINGTON  1340   41     150/ 10/ 14 1010.2S
MILWAUKEE LAKESH 1350   40     140/ 11/ 12   N/A
KENOSHA   LAKESH 1400   40     120/  7/  9 1008.8
$$

TC  - TEMPERATURE IN CELSIUS
VSB - VISIBILITY IN STATUTE MILES
WCI - WIND CHILL INDEX
HX  - HEAT INDEX




USA.gov is the U.S. government's official web portal to all federal, state and local government web resources and services.